Location: Gleizolles
(44.4833°N, 6.7667°E)
Time: 13:26:02
(UTC+00:00)

A-11 Canister half - Pass Details

Date: 17 June 2024
Orbit: 1515 x 1684 km, 47.2° (Epoch: 24 July)

Event Time Altitude Azimuth Distance (km) Brightness Sun altitude
Rises 20:56:49 0° 267° (W) 4,907 12.1 -13.2°
Reaches altitude 10° 21:00:01 10° 269° (W) 3,904 11.6 -13.5°
Maximum altitude 21:10:02 77° 356° (N) 1,657 9.3 -14.5°
Drops below altitude 10° 21:19:41 10° 83° (E) 3,772 10.8 -15.5°
Sets 21:22:44 0° 85° (E) 4,734 11.3 -15.8°
